Torna al catalogo

SL-14 R/B

AttivoPO
NORAD 18422·ROCKET BODY·🇷🇺 Russia

Lanciato Oct 20, 1987 da Plesetsk Cosmodrome

Loading…

Prossimi Passaggi (prossime 24 ore)

TLE

AggiornatoSource: Space-Track

Epoca: Sep 14, 2026, 11:01 UTC

1 18422U 87088B   26257.45939770  .00000291  00000-0  30763-4 0  9999
2 18422  82.5076 249.5905 0020208 105.5692 254.7757 14.85460037 81320

Traccia SL-14 R/B in tempo reale con AllMySat

Download on the App Store